Theta_e
312 311 309 309 310 310 308 309 309 309 308 309 308 308 307 308 308 318 319 318 319 317 331 333 340 348 348 350 351 351 355 360 353 356 350 348 346 347 349 353 353 352 355 353 352
310 309 307 306 306 306 305 307 306 307 309 310 309 308 307 308 317 318 317 318 317 316 334 334 343 346 350 349 350 353 354 360 349 352 350 350 348 346 349 352 353 353 354 351 351
305 303 303 302 302 303 305 306 305 304 306 308 307 306 308 310 322 321 318 317 316 316 325 332 336 343 346 346 348 350 351 354 345 346 348 349 352 348 345 352 351 355 356 352 351
304 303 302 302 302 302 302 303 303 304 305 306 309 306 307 318 322 331 319 319 316 318 324 329 336 341 344 346 346 349 347 348 346 345 346 349 351 351 349 345 349 351 353 352 352
302 302 302 301 301 301 302 302 303 304 306 308 313 310 316 322 320 325 318 323 323 319 324 328 335 338 342 342 345 347 346 345 349 346 344 348 351 352 350 345 347 350 352 352 352
301 301 301 301 301 301 302 302 304 308 312 317 316 314 318 324 322 319 321 325 321 324 325 329 333 336 340 341 343 343 345 344 346 345 343 346 349 350 351 348 348 350 352 352 351
300 300 301 301 301 302 302 302 307 314 319 317 318 315 321 325 320 316 322 325 326 328 328 329 331 336 339 340 340 342 343 344 345 345 344 343 348 350 351 351 351 352 351 351 351
301 301 301 301 301 302 302 305 311 319 318 315 316 317 325 324 323 318 319 327 330 331 330 329 331 335 337 338 339 342 343 346 343 340 342 343 348 347 352 354 354 353 351 350 350
301 301 301 301 302 302 302 307 317 317 317 316 320 322 329 320 320 322 319 324 332 332 332 330 331 335 336 339 339 336 339 343 342 340 341 341 348 348 351 353 355 354 353 350 350
301 301 301 301 302 303 305 309 313 318 321 322 324 324 324 325 323 319 321 323 330 334 334 334 334 336 337 340 338 336 335 338 340 341 341 342 344 350 351 352 353 355 354 352 349
301 301 301 301 302 306 308 312 317 325 322 326 328 325 327 325 321 319 323 326 330 335 336 335 336 337 332 338 337 334 334 335 338 340 340 343 344 346 349 350 349 353 355 353 350
301 301 301 302 305 308 310 312 311 309 312 313 314 315 321 325 326 321 322 327 333 337 335 333 337 332 331 331 335 335 334 335 335 338 340 342 345 345 345 348 349 350 354 353 352
301 301 302 302 306 309 310 309 309 309 312 313 315 316 317 323 327 326 322 327 332 336 332 329 331 330 327 328 331 335 335 334 334 336 340 340 343 342 343 343 347 346 353 352 353
301 302 302 303 307 309 310 307 309 309 314 316 318 318 318 319 325 327 320 327 332 337 331 327 327 327 326 327 327 327 330 332 333 336 342 338 344 342 341 342 343 345 350 353 353
301 302 302 306 309 311 308 307 308 311 316 320 319 319 320 319 324 326 322 325 326 328 332 328 326 326 327 327 327 327 328 330 332 334 337 339 342 341 341 342 341 343 344 350 352
302 303 304 307 308 308 307 307 310 315 316 321 319 320 320 320 323 326 326 322 326 326 328 329 327 327 327 327 327 327 327 328 329 331 335 337 341 342 340 342 342 343 344 345 351
302 304 306 306 308 306 307 310 311 311 317 322 321 322 321 323 322 326 327 322 324 326 327 327 328 327 327 327 327 326 326 327 329 331 333 333 337 339 338 338 340 341 344 345 349
303 306 308 307 306 306 308 311 310 310 316 317 317 318 320 323 324 325 327 329 323 324 327 327 328 328 326 327 327 327 326 327 331 329 330 332 335 336 336 336 337 340 341 344 347
306 308 308 306 306 307 311 310 309 313 313 313 314 320 321 323 324 325 325 327 326 324 327 329 330 328 327 326 328 328 329 327 328 329 329 329 331 332 334 335 336 337 339 343 346
307 309 309 305 306 309 312 310 309 309 309 310 312 317 322 323 324 325 326 326 327 326 327 330 332 330 327 327 327 329 328 327 328 331 331 330 331 332 333 333 335 336 339 340 344
309 310 308 305 307 311 308 308 308 307 308 309 310 312 316 318 321 325 326 325 325 328 328 330 333 334 331 328 328 328 330 328 328 328 330 332 331 332 333 334 333 335 336 337 340
309 311 308 306 309 308 307 307 306 307 308 308 310 312 312 316 320 323 325 325 319 323 329 329 331 335 332 329 328 328 329 330 333 334 329 331 332 331 332 331 333 334 336 337 339
311 311 308 307 309 308 307 306 307 309 307 308 309 312 314 316 321 322 324 321 318 323 328 329 331 335 336 331 329 329 329 329 330 329 333 330 332 332 331 331 333 334 335 338 340
311 311 310 309 308 307 307 307 306 307 306 307 309 310 312 313 314 319 322 319 318 319 320 324 330 334 337 335 330 330 330 329 330 333 331 332 331 331 331 331 335 335 335 337 340
309 310 309 310 310 308 307 307 307 308 307 307 309 310 310 313 314 317 319 319 319 319 322 324 332 332 333 334 332 330 329 330 330 331 332 332 333 333 332 332 333 334 335 335 337
309 309 307 309 309 307 307 308 306 306 306 307 308 307 309 311 313 313 316 317 318 319 320 323 327 331 334 332 331 331 331 329 330 330 330 331 332 333 332 332 332 332 333 332 333
305 305 308 308 308 309 308 308 307 307 306 307 307 307 307 309 309 311 312 312 313 315 316 320 325 331 335 333 331 332 331 332 331 330 330 331 332 332 333 332 332 333 333 333 333
Wind_Speed
24 25 26 26 26 26 26 25 24 23 24 22 21 19 18 18 18 13 17 15 20 19 12 19 24 23 21 18 19 10 12 5 15 19 21 10 13 10 12 13 8 4 21 28 34
25 26 27 28 28 28 28 27 27 26 24 21 20 19 17 15 18 26 32 25 25 19 17 24 23 22 17 19 16 14 1 9 4 19 7 10 14 10 12 12 12 14 28 32 34
28 29 31 31 32 31 31 29 30 29 23 20 19 18 13 10 15 15 8 40 28 24 25 25 24 21 22 17 19 17 12 25 7 8 4 16 17 7 13 12 14 19 25 28 34
29 31 33 34 35 35 37 34 31 27 24 24 19 16 8 8 6 9 4 14 33 27 27 25 23 24 23 23 19 17 11 16 5 6 6 11 18 12 4 16 17 20 25 27 27
31 33 35 37 38 38 40 33 32 30 28 23 16 10 5 10 20 10 5 7 21 30 32 25 25 24 25 22 18 19 18 9 10 5 5 4 11 12 11 8 18 20 24 26 23
33 35 36 38 39 42 40 32 34 28 19 13 12 9 10 19 11 15 10 12 20 32 32 27 22 23 22 23 22 13 17 13 14 11 11 10 10 9 16 13 19 20 23 24 24
34 35 37 39 41 44 36 35 31 18 17 13 13 15 15 20 5 9 16 19 20 31 24 28 26 20 24 18 18 20 13 17 12 15 10 12 14 17 19 17 20 21 21 22 23
35 36 38 39 41 44 30 31 20 14 18 8 15 13 9 5 22 14 17 21 22 26 23 25 25 21 24 18 11 18 20 16 20 19 16 14 18 20 19 19 20 21 20 21 24
36 38 40 41 42 41 29 23 11 12 8 11 11 15 10 6 16 25 21 24 25 22 22 19 22 16 21 19 15 18 18 23 21 22 15 17 7 13 21 19 19 20 20 20 22
36 38 39 41 41 28 31 23 12 5 3 8 9 7 10 12 17 22 26 25 23 20 18 16 15 18 19 20 19 23 24 22 22 19 19 17 18 27 19 20 20 20 20 21 22
37 39 39 38 32 26 30 22 3 7 12 16 8 16 4 8 5 19 27 23 23 23 23 23 19 26 30 28 25 22 22 25 22 16 20 19 18 20 20 18 17 21 20 22 22
37 39 40 37 17 22 19 12 9 10 16 22 30 29 32 7 12 17 30 22 24 27 26 18 29 27 25 27 28 27 24 22 22 15 13 19 20 18 16 20 17 18 21 21 22
37 38 40 34 12 16 9 18 17 16 9 18 27 24 25 25 16 23 31 29 31 30 32 28 20 27 27 25 27 27 27 21 18 20 19 15 19 18 20 15 19 17 22 21 23
37 38 35 30 8 16 10 21 17 13 7 9 10 8 25 20 19 25 35 31 18 33 31 30 25 29 27 28 26 27 26 23 19 19 17 22 16 20 18 20 18 19 21 23 24
36 39 26 9 15 11 18 22 17 9 7 11 10 6 11 26 12 30 38 33 26 23 29 31 24 22 29 25 27 24 21 23 22 18 17 19 19 18 25 23 23 21 20 23 25
36 31 19 8 14 16 22 22 8 8 11 5 6 8 12 26 27 24 28 32 29 26 27 29 20 23 21 25 22 22 20 21 22 18 19 25 20 18 16 25 27 23 22 21 24
38 20 12 10 12 21 20 13 8 11 3 13 12 13 11 17 25 19 32 32 30 30 30 28 32 23 23 23 23 20 20 13 16 18 17 25 23 19 18 19 19 19 23 21 22
38 15 9 8 18 17 16 11 14 20 13 21 19 23 21 21 21 26 27 27 36 31 18 22 24 34 22 28 25 27 25 16 22 19 18 24 27 24 25 13 14 22 20 22 23
30 12 4 14 16 13 9 11 14 13 18 20 26 22 16 21 9 25 28 28 31 34 31 25 30 33 30 25 27 23 27 26 23 23 15 20 24 26 23 27 20 15 21 24 24
23 19 1 19 15 12 9 15 16 13 18 18 19 18 24 18 9 17 27 25 28 35 32 28 19 30 32 25 28 28 24 23 18 22 20 16 16 17 21 18 25 25 17 22 24
15 7 11 18 13 9 10 11 18 17 18 13 22 25 19 21 26 21 18 3 6 14 32 32 23 17 27 28 28 25 22 27 21 18 15 12 9 18 19 22 22 21 26 21 22
11 6 14 17 11 3 7 9 8 16 12 14 17 24 20 20 17 16 17 9 13 14 19 37 13 21 31 28 27 27 29 28 17 24 18 12 2 11 10 8 17 21 20 24 20
9 11 2 13 7 10 12 15 10 11 9 8 9 10 22 15 8 13 11 8 10 13 8 5 15 17 23 25 26 31 31 25 27 19 21 16 6 8 6 2 14 16 19 19 19
7 6 6 7 6 9 13 13 16 8 7 10 8 11 17 18 14 10 12 9 6 9 14 9 17 24 19 25 23 29 31 30 25 20 18 20 15 12 6 7 5 6 12 16 15
5 5 6 7 11 14 11 16 13 8 6 12 1 8 11 9 19 12 11 13 12 2 8 7 15 20 26 13 11 30 31 31 31 24 25 15 19 14 13 13 12 11 8 5 4
4 5 8 12 12 11 12 12 12 8 12 15 5 10 9 12 13 8 16 10 7 13 10 8 12 19 22 18 7 13 22 31 29 28 23 23 15 17 12 9 7 8 8 5 5
6 10 5 7 8 11 10 11 16 18 11 8 14 14 13 11 9 14 16 19 16 14 12 12 10 11 15 18 11 17 21 19 26 26 25 21 19 11 9 8 4 6 6 5 7
Wind_Direction
358 356 354 351 347 343 339 335 331 326 323 317 312 311 314 315 304 265 244 236 221 233 183 183 195 200 211 220 230 246 271 127 256 40 116 139 104 82 84 128 129 78 135 142 149
358 356 353 350 347 343 340 332 328 323 318 314 311 305 311 320 296 266 249 235 229 206 192 193 194 198 210 220 221 235 330 274 291 167 95 127 121 115 133 138 131 116 120 142 155
360 357 355 353 350 345 340 331 326 321 314 310 308 306 306 319 281 265 237 224 215 204 208 203 204 204 220 221 221 233 245 230 111 27 216 140 122 147 117 157 150 134 144 155 155
358 355 353 351 348 345 342 332 327 323 312 305 296 292 292 282 258 64 73 202 212 204 212 208 211 207 220 221 223 238 258 259 94 122 266 152 132 139 201 132 148 142 156 161 166
356 353 353 350 347 345 341 332 327 319 309 299 282 265 261 224 248 272 299 193 189 194 208 204 210 209 217 224 221 226 260 218 249 232 239 268 141 144 144 139 143 146 161 169 175
354 352 351 347 346 343 339 332 325 320 308 294 266 212 228 248 257 229 206 173 186 191 205 202 210 213 223 231 216 218 231 252 235 210 184 225 170 203 150 154 146 159 170 175 181
354 353 349 346 344 341 337 334 325 318 309 284 232 193 231 238 222 215 203 197 191 194 203 205 212 214 228 235 241 230 251 228 226 236 216 221 189 188 152 165 159 166 174 179 185
355 353 349 346 344 339 336 336 326 320 316 286 183 197 251 238 239 229 204 204 193 206 216 206 214 224 228 244 231 220 229 220 213 217 213 206 209 176 157 170 171 171 176 180 186
355 352 348 345 343 338 334 333 317 341 313 149 159 222 258 178 216 216 210 203 198 203 214 206 216 223 221 236 225 214 221 223 221 204 204 207 171 306 168 178 177 179 178 182 185
353 351 348 345 343 348 337 326 270 280 159 220 266 210 245 225 206 204 203 203 199 195 204 211 211 207 227 211 220 214 216 217 222 193 207 198 241 182 168 179 185 182 182 186 187
352 349 347 345 345 351 339 328 280 204 246 260 199 249 304 210 150 190 188 192 198 198 201 199 201 213 211 218 223 235 212 230 202 185 199 222 221 187 170 186 199 175 187 190 190
351 348 344 344 347 358 4 29 28 307 294 271 260 259 259 246 207 194 188 191 191 199 197 188 217 213 218 213 223 234 242 215 231 200 202 209 222 205 244 184 197 191 185 194 187
350 348 341 338 328 349 9 7 334 322 268 282 243 233 223 229 227 192 190 200 194 196 198 204 214 216 209 216 214 225 232 232 221 218 215 226 228 223 225 208 185 209 182 195 191
348 346 342 336 300 339 10 338 331 320 279 256 199 226 213 200 230 229 195 197 191 206 203 220 223 195 212 216 213 220 222 236 237 232 211 205 233 212 218 201 197 199 192 188 196
346 344 340 330 312 337 336 326 324 269 278 112 126 108 191 194 161 201 187 204 209 203 209 210 215 195 209 210 214 227 213 222 237 242 249 233 220 238 198 211 198 205 200 190 192
341 342 334 345 287 340 328 320 282 235 239 160 118 193 196 207 245 172 188 211 220 212 215 225 210 222 214 213 213 214 229 221 220 234 238 231 240 221 225 204 208 189 205 197 189
336 337 315 306 331 326 326 297 250 242 216 19 357 328 265 209 223 194 189 195 206 213 213 213 226 212 224 208 200 207 207 206 217 216 226 226 232 234 230 220 203 209 196 196 191
335 328 295 301 328 324 311 279 258 283 5 350 328 308 278 271 209 214 196 203 212 211 212 211 214 220 199 214 198 206 209 214 210 216 222 228 230 226 236 246 230 197 207 194 188
341 324 290 342 332 320 291 275 275 345 355 334 324 297 256 225 257 212 210 213 205 218 219 203 224 193 213 210 212 195 215 217 239 215 234 215 218 238 229 223 219 241 201 196 185
324 302 229 342 325 293 267 273 347 356 327 325 301 289 325 341 226 248 218 223 221 209 232 243 216 221 199 206 215 226 205 216 229 248 224 233 242 208 209 223 213 207 211 217 180
297 302 26 337 294 263 305 344 338 335 315 324 309 302 304 307 318 280 252 79 298 234 220 238 249 239 206 203 198 206 211 213 228 231 241 241 240 222 202 202 216 217 210 213 207
300 312 5 329 288 337 321 339 285 289 329 325 316 285 280 298 298 299 311 60 354 313 280 215 233 237 202 199 211 208 217 200 221 215 237 262 117 32 159 208 190 215 210 209 202
313 301 177 331 355 334 336 327 311 339 344 305 310 338 303 298 301 336 310 6 341 309 357 190 225 220 238 190 198 220 208 218 211 232 211 227 172 121 117 279 189 195 212 205 200
301 309 345 298 336 318 330 305 309 293 323 307 323 331 338 301 268 278 312 322 325 337 329 299 244 226 217 198 192 207 216 212 217 217 221 209 231 121 104 156 138 188 193 193 200
286 318 360 305 333 328 324 292 300 335 322 310 1 327 336 311 307 347 329 287 278 58 295 268 239 236 250 255 218 198 216 213 217 215 223 204 208 167 135 129 143 136 118 106 130
298 336 329 306 306 296 282 307 311 316 318 307 312 319 300 296 280 299 304 339 337 341 334 309 267 251 250 243 228 261 230 219 213 223 221 231 228 190 169 142 150 160 185 168 206
310 303 301 272 290 303 299 317 314 308 306 314 307 313 305 302 284 276 262 281 289 292 302 303 270 235 231 235 229 238 232 237 224 212 224 222 227 230 169 181 199 231 268 248 233